| time (UTC) | temp F | wind direction | speed knots | gust knots | rain 1hr in | rain 24hr in | rain mn in | humidity % | barometer mb |
| 20260905080546 | 52 | 0 | 0.0 | 0.0 | 0.00 | 0.32 | 0.00 | 96 | 1016.3 |
| 20260905080057 | 52 | 0 | 0.0 | 0.0 | 0.00 | 0.32 | 0.00 | 97 | 1016.3 |
| 20260905075547 | 52 | 0 | 0.0 | 0.0 | 0.00 | 0.32 | 0.00 | 97 | 1016.3 |
| 20260905075046 | 52 | 0 | 0.0 | 0.0 | 0.00 | 0.32 | 0.00 | 96 | 1016.3 |
| 20260905074605 | 52 | 0 | 0.0 | 0.0 | 0.00 | 0.32 | 0.00 | 97 | 1016.3 |
| 20260905074047 | 52 | 0 | 0.0 | 0.0 | 0.00 | 0.32 | 0.00 | 96 | 1016.2 |
| 20260905073549 | 52 | 0 | 0.0 | 0.0 | 0.00 | 0.32 | 0.00 | 96 | 1016.3 |
| 20260905073109 | 52 | 0 | 0.0 | 0.0 | 0.00 | 0.32 | 0.00 | 96 | 1016.2 |
| 20260905072546 | 52 | 0 | 0.0 | 0.0 | 0.00 | 0.32 | 0.00 | 96 | 1016.1 |
| 20260905072046 | 52 | 0 | 0.0 | 0.0 | 0.00 | 0.32 | 0.00 | 96 | 1016.1 |
| 20260905071602 | 52 | 0 | 0.0 | 0.0 | 0.00 | 0.32 | 0.00 | 96 | 1016.2 |
| 20260905071050 | 52 | 0 | 0.0 | 0.0 | 0.00 | 0.32 | 0.00 | 96 | 1016.2 |
| 20260905070546 | 52 | 0 | 0.0 | 0.0 | 0.00 | 0.32 | 0.00 | 96 | 1016.1 |
| 20260905070105 | 52 | 0 | 0.0 | 0.0 | 0.00 | 0.32 | 0.00 | 96 | 1016.1 |
| 20260905065546 | 52 | 0 | 0.0 | 0.0 | 0.00 | 0.32 | 0.32 | 96 | 1016.1 |
| 20260905065051 | 52 | 0 | 0.0 | 0.0 | 0.00 | 0.32 | 0.32 | 96 | 1016.1 |
| 20260905064616 | 52 | 0 | 0.0 | 0.0 | 0.00 | 0.32 | 0.32 | 96 | 1016.1 |
| 20260905064047 | 52 | 0 | 0.0 | 0.0 | 0.00 | 0.32 | 0.32 | 96 | 1016.1 |
| 20260905063547 | 52 | 0 | 0.0 | 0.0 | 0.00 | 0.32 | 0.32 | 96 | 1016.1 |
| 20260905063106 | 52 | 0 | 0.0 | 0.0 | 0.00 | 0.32 | 0.32 | 96 | 1016.0 |
| 20260905062546 | 52 | 0 | 0.0 | 0.0 | 0.00 | 0.32 | 0.32 | 96 | 1016.0 |
| 20260905062046 | 52 | 0 | 0.0 | 0.0 | 0.00 | 0.32 | 0.32 | 96 | 1016.0 |
| 20260905061619 | 52 | 0 | 0.0 | 0.0 | 0.00 | 0.32 | 0.32 | 96 | 1016.1 |
| 20260905061048 | 52 | 0 | 0.0 | 0.0 | 0.00 | 0.32 | 0.32 | 96 | 1016.1 |
| 20260905060546 | 52 | 0 | 0.0 | 0.0 | 0.00 | 0.32 | 0.32 | 96 | 1016.1 |
| 20260905060104 | 52 | 0 | 0.0 | 0.0 | 0.00 | 0.32 | 0.32 | 95 | 1016.0 |
| 20260905055548 | 52 | 0 | 0.0 | 0.0 | 0.00 | 0.32 | 0.32 | 96 | 1016.1 |
| 20260905055049 | 52 | 0 | 0.0 | 0.0 | 0.00 | 0.32 | 0.32 | 96 | 1016.1 |
| 20260905054603 | 52 | 0 | 0.0 | 0.0 | 0.00 | 0.32 | 0.32 | 95 | 1016.1 |
| 20260905054045 | 53 | 0 | 0.0 | 0.0 | 0.00 | 0.32 | 0.32 | 95 | 1016.1 |
| 20260905053548 | 53 | 0 | 0.0 | 0.0 | 0.00 | 0.32 | 0.32 | 95 | 1016.1 |
| 20260905053100 | 53 | 0 | 0.0 | 0.0 | 0.00 | 0.32 | 0.32 | 95 | 1016.1 |
| 20260905052546 | 53 | 0 | 0.0 | 0.0 | 0.00 | 0.32 | 0.32 | 95 | 1016.1 |
| 20260905052045 | 53 | 0 | 0.0 | 0.0 | 0.00 | 0.32 | 0.32 | 95 | 1016.1 |
| 20260905051611 | 53 | 0 | 0.0 | 0.0 | 0.00 | 0.32 | 0.32 | 95 | 1016.0 |
| 20260905051046 | 53 | 0 | 0.0 | 0.0 | 0.00 | 0.32 | 0.32 | 95 | 1016.0 |
| 20260905050545 | 53 | 0 | 0.0 | 0.9 | 0.00 | 0.32 | 0.32 | 95 | 1015.9 |
| 20260905050119 | 53 | 0 | 0.0 | 0.9 | 0.00 | 0.32 | 0.32 | 95 | 1015.9 |
| 20260905045547 | 54 | 0 | 0.0 | 1.7 | 0.00 | 0.32 | 0.32 | 95 | 1015.8 |
| 20260905045048 | 54 | 0 | 0.0 | 1.7 | 0.00 | 0.32 | 0.32 | 95 | 1015.9 |
| 20260905044603 | 54 | 0 | 0.0 | 0.9 | 0.00 | 0.32 | 0.32 | 95 | 1015.9 |
| 20260905044052 | 54 | 0 | 0.0 | 1.7 | 0.00 | 0.32 | 0.32 | 95 | 1016.0 |
| 20260905043548 | 54 | 0 | 0.0 | 2.6 | 0.00 | 0.32 | 0.32 | 95 | 1016.0 |
| 20260905043108 | 54 | 0 | 0.0 | 2.6 | 0.00 | 0.32 | 0.32 | 95 | 1015.9 |
| 20260905042550 | 54 | 0 | 0.0 | 0.0 | 0.00 | 0.32 | 0.32 | 94 | 1015.8 |
| 20260905042046 | 54 | 0 | 0.0 | 0.9 | 0.00 | 0.32 | 0.32 | 94 | 1015.7 |
| 20260905041603 | 55 | 0 | 0.0 | 3.5 | 0.00 | 0.32 | 0.32 | 94 | 1015.8 |
| 20260905041046 | 55 | 0 | 0.0 | 3.5 | 0.00 | 0.32 | 0.32 | 95 | 1015.8 |
| 20260905040546 | 55 | 147 | 1.7 | 3.5 | 0.00 | 0.32 | 0.32 | 95 | 1015.8 |
| 20260905040105 | 55 | 0 | 0.0 | 3.5 | 0.00 | 0.32 | 0.32 | 95 | 1015.9 |
| 20260905035546 | 55 | 147 | 1.7 | 3.5 | 0.00 | 0.32 | 0.32 | 95 | 1015.8 |
| 20260905035045 | 55 | 147 | 0.0 | 3.5 | 0.00 | 0.32 | 0.32 | 94 | 1015.7 |
| 20260905034613 | 54 | 0 | 0.0 | 3.5 | 0.00 | 0.32 | 0.32 | 95 | 1015.8 |
| 20260905034046 | 54 | 147 | 0.9 | 3.5 | 0.00 | 0.32 | 0.32 | 95 | 1015.8 |
| 20260905033547 | 54 | 0 | 0.0 | 0.0 | 0.00 | 0.32 | 0.32 | 94 | 1015.6 |
| 20260905033110 | 54 | 0 | 0.0 | 0.9 | 0.00 | 0.32 | 0.32 | 94 | 1015.4 |
| 20260905032550 | 54 | 0 | 0.0 | 0.9 | 0.00 | 0.32 | 0.32 | 94 | 1015.5 |
| 20260905032046 | 54 | 0 | 0.0 | 0.9 | 0.00 | 0.32 | 0.32 | 94 | 1015.5 |
| 20260905031615 | 55 | 0 | 0.0 | 0.0 | 0.00 | 0.32 | 0.32 | 94 | 1015.5 |
| 20260905031046 | 55 | 0 | 0.0 | 0.0 | 0.00 | 0.32 | 0.32 | 94 | 1015.5 |
| 20260905030546 | 55 | 0 | 0.0 | 0.0 | 0.00 | 0.32 | 0.32 | 94 | 1015.6 |
| 20260905030112 | 55 | 0 | 0.0 | 0.9 | 0.00 | 0.32 | 0.32 | 94 | 1015.5 |
| 20260905025548 | 55 | 0 | 0.0 | 0.9 | 0.00 | 0.32 | 0.32 | 94 | 1015.6 |
| 20260905025049 | 55 | 0 | 0.0 | 1.7 | 0.00 | 0.32 | 0.32 | 94 | 1015.7 |
| 20260905024605 | 55 | 0 | 0.0 | 2.6 | 0.00 | 0.32 | 0.32 | 93 | 1015.7 |
| 20260905024047 | 55 | 0 | 0.0 | 2.6 | 0.00 | 0.32 | 0.32 | 93 | 1015.7 |
| 20260905023547 | 56 | 0 | 0.0 | 1.7 | 0.01 | 0.32 | 0.32 | 93 | 1015.7 |
| 20260905023138 | 56 | 0 | 0.0 | 3.5 | 0.01 | 0.32 | 0.32 | 93 | 1015.7 |
| 20260905022547 | 56 | 0 | 0.0 | 7.0 | 0.01 | 0.32 | 0.32 | 93 | 1015.8 |
| 20260905022046 | 56 | 127 | 0.9 | 9.6 | 0.02 | 0.32 | 0.32 | 93 | 1015.8 |
| 20260905021605 | 56 | 137 | 3.5 | 9.6 | 0.02 | 0.32 | 0.32 | 92 | 1015.9 |
| 20260905021046 | 57 | 0 | 1.7 | 9.6 | 0.02 | 0.32 | 0.32 | 92 | 1015.8 |
| 20260905020547 | 57 | 159 | 3.5 | 11.3 | 0.02 | 0.32 | 0.32 | 93 | 1015.9 |
| 20260905020105 | 57 | 132 | 3.5 | 11.3 | 0.02 | 0.32 | 0.32 | 93 | 1015.8 |
| 20260905015546 | 57 | 132 | 2.6 | 9.6 | 0.04 | 0.32 | 0.32 | 93 | 1015.8 |
| 20260905015047 | 57 | 150 | 0.9 | 9.6 | 0.05 | 0.32 | 0.32 | 94 | 1015.6 |
| 20260905014606 | 57 | 146 | 4.3 | 9.6 | 0.07 | 0.32 | 0.32 | 93 | 1015.5 |
| 20260905014050 | 58 | 176 | 2.6 | 4.3 | 0.11 | 0.32 | 0.32 | 94 | 1015.3 |
| 20260905013550 | 57 | 187 | 0.0 | 1.7 | 0.13 | 0.31 | 0.31 | 94 | 1015.1 |
| 20260905013109 | 57 | 0 | 0.0 | 0.0 | 0.18 | 0.31 | 0.31 | 93 | 1014.8 |
| 20260905012547 | 57 | 0 | 0.0 | 0.0 | 0.23 | 0.31 | 0.31 | 93 | 1014.7 |
| 20260905012046 | 57 | 0 | 0.0 | 0.0 | 0.24 | 0.30 | 0.30 | 93 | 1014.7 |
| 20260905011607 | 57 | 0 | 0.0 | 0.0 | 0.25 | 0.30 | 0.30 | 93 | 1014.7 |
| 20260905011050 | 57 | 0 | 0.0 | 0.9 | 0.26 | 0.30 | 0.30 | 92 | 1014.5 |
| 20260905010545 | 57 | 0 | 0.0 | 0.9 | 0.26 | 0.30 | 0.30 | 92 | 1014.4 |
| 20260905010107 | 57 | 0 | 0.0 | 0.9 | 0.26 | 0.30 | 0.30 | 91 | 1014.3 |
| 20260905005552 | 57 | 0 | 0.0 | 1.7 | 0.25 | 0.28 | 0.28 | 90 | 1014.3 |
| 20260905005047 | 58 | 0 | 0.0 | 1.7 | 0.25 | 0.27 | 0.27 | 89 | 1014.3 |
| 20260905004606 | 58 | 188 | 0.0 | 1.7 | 0.23 | 0.25 | 0.25 | 90 | 1014.3 |
| 20260905004044 | 59 | 0 | 0.0 | 1.7 | 0.19 | 0.21 | 0.21 | 90 | 1014.4 |
| 20260905003547 | 60 | 0 | 0.0 | 1.7 | 0.15 | 0.17 | 0.17 | 89 | 1014.2 |
| 20260905003101 | 60 | 188 | 0.0 | 1.7 | 0.11 | 0.13 | 0.13 | 88 | 1014.2 |
| 20260905002548 | 61 | 0 | 0.0 | 1.7 | 0.06 | 0.08 | 0.08 | 88 | 1014.2 |
| 20260905002049 | 61 | 0 | 0.0 | 1.7 | 0.04 | 0.06 | 0.06 | 87 | 1014.3 |
| 20260905001609 | 62 | 0 | 0.0 | 1.7 | 0.03 | 0.05 | 0.05 | 86 | 1014.1 |
| 20260905001047 | 62 | 0 | 0.0 | 2.6 | 0.02 | 0.04 | 0.04 | 86 | 1014.0 |
| 20260905000548 | 62 | 36 | 0.9 | 4.3 | 0.02 | 0.04 | 0.04 | 85 | 1014.0 |
| 20260905000121 | 62 | 36 | 0.0 | 4.3 | 0.02 | 0.04 | 0.04 | 85 | 1013.9 |
| 20260904235547 | 64 | 36 | 1.7 | 4.3 | 0.01 | 0.03 | 0.03 | 78 | 1013.8 |
| 20260904235046 | 66 | 0 | 0.9 | 3.5 | 0.00 | 0.02 | 0.02 | 72 | 1013.8 |
| 20260904234602 | 67 | 169 | 0.9 | 4.3 | 0.00 | 0.02 | 0.02 | 68 | 1013.7 |
| 20260904234046 | 68 | 11 | 0.9 | 4.3 | 0.00 | 0.02 | 0.02 | 65 | 1013.7 |
| 20260904233546 | 70 | 0 | 0.0 | 7.8 | 0.00 | 0.02 | 0.02 | 59 | 1013.6 |
| 20260904233104 | 71 | 0 | 2.6 | 8.7 | 0.00 | 0.02 | 0.02 | 59 | 1013.6 |
| 20260904232546 | 71 | 311 | 3.5 | 8.7 | 0.00 | 0.02 | 0.02 | 59 | 1013.5 |
| 20260904232049 | 71 | 299 | 2.6 | 9.6 | 0.00 | 0.02 | 0.02 | 56 | 1013.4 |
| 20260904231604 | 71 | 299 | 2.6 | 9.6 | 0.00 | 0.02 | 0.02 | 58 | 1013.3 |
| 20260904231046 | 71 | 0 | 2.6 | 7.0 | 0.00 | 0.02 | 0.02 | 58 | 1013.3 |
| 20260904230550 | 71 | 296 | 2.6 | 7.0 | 0.00 | 0.02 | 0.02 | 59 | 1013.3 |
| 20260904230112 | 72 | 319 | 0.0 | 6.1 | 0.00 | 0.02 | 0.02 | 55 | 1013.3 |
| 20260904225547 | 71 | 282 | 1.7 | 6.1 | 0.00 | 0.02 | 0.02 | 57 | 1013.3 |
| 20260904225046 | 71 | 313 | 1.7 | 7.0 | 0.00 | 0.02 | 0.02 | 61 | 1013.2 |
| 20260904224604 | 69 | 10 | 0.9 | 7.8 | 0.00 | 0.02 | 0.02 | 63 | 1013.2 |
| 20260904224048 | 71 | 289 | 0.9 | 7.8 | 0.00 | 0.02 | 0.02 | 61 | 1013.3 |
| 20260904223549 | 71 | 331 | 0.9 | 6.1 | 0.00 | 0.02 | 0.02 | 62 | 1013.2 |
| 20260904223057 | 70 | 288 | 1.7 | 7.8 | 0.00 | 0.02 | 0.02 | 63 | 1013.2 |
| 20260904222546 | 70 | 0 | 1.7 | 7.8 | 0.00 | 0.02 | 0.02 | 61 | 1013.2 |
| 20260904222045 | 71 | 338 | 0.9 | 7.8 | 0.00 | 0.02 | 0.02 | 62 | 1013.3 |
| 20260904221603 | 70 | 271 | 1.7 | 7.0 | 0.00 | 0.02 | 0.02 | 64 | 1013.3 |
| 20260904221048 | 70 | 214 | 0.9 | 8.7 | 0.00 | 0.02 | 0.02 | 64 | 1013.3 |
| 20260904220548 | 70 | 311 | 1.7 | 8.7 | 0.00 | 0.02 | 0.02 | 63 | 1013.4 |
| 20260904220119 | 69 | 288 | 1.7 | 8.7 | 0.00 | 0.02 | 0.02 | 63 | 1013.4 |
| 20260904215547 | 69 | 0 | 2.6 | 8.7 | 0.00 | 0.02 | 0.02 | 64 | 1013.4 |
| 20260904215046 | 70 | 214 | 0.9 | 7.8 | 0.00 | 0.02 | 0.02 | 62 | 1013.4 |
| 20260904214557 | 68 | 199 | 1.7 | 8.7 | 0.00 | 0.02 | 0.02 | 67 | 1013.4 |
| 20260904214046 | 67 | 290 | 3.5 | 8.7 | 0.00 | 0.02 | 0.02 | 67 | 1013.4 |
| 20260904213546 | 68 | 330 | 1.7 | 7.8 | 0.00 | 0.02 | 0.02 | 68 | 1013.3 |
| 20260904213100 | 68 | 190 | 1.7 | 7.8 | 0.00 | 0.02 | 0.02 | 67 | 1013.3 |
| 20260904212547 | 68 | 294 | 0.9 | 7.8 | 0.00 | 0.02 | 0.02 | 68 | 1013.3 |
| 20260904212047 | 68 | 320 | 3.5 | 7.8 | 0.00 | 0.02 | 0.02 | 67 | 1013.3 |
| 20260904211608 | 68 | 186 | 2.6 | 7.0 | 0.00 | 0.02 | 0.02 | 65 | 1013.1 |
| 20260904211045 | 67 | 51 | 1.7 | 7.8 | 0.00 | 0.02 | 0.02 | 70 | 1013.2 |
| 20260904210546 | 67 | 346 | 1.7 | 8.7 | 0.00 | 0.02 | 0.02 | 70 | 1013.2 |
| 20260904210118 | 67 | 326 | 2.6 | 8.7 | 0.00 | 0.02 | 0.02 | 70 | 1013.3 |
| 20260904205547 | 68 | 300 | 1.7 | 8.7 | 0.00 | 0.02 | 0.02 | 68 | 1013.4 |
| 20260904205047 | 68 | 0 | 0.9 | 4.3 | 0.00 | 0.02 | 0.02 | 64 | 1013.3 |
| 20260904204601 | 68 | 246 | 0.9 | 7.0 | 0.00 | 0.02 | 0.02 | 63 | 1013.3 |
| 20260904204047 | 67 | 252 | 2.6 | 7.0 | 0.00 | 0.02 | 0.02 | 63 | 1013.3 |
| 20260904203547 | 67 | 217 | 0.9 | 6.1 | 0.00 | 0.02 | 0.02 | 67 | 1013.3 |
| 20260904203101 | 66 | 0 | 0.0 | 6.1 | 0.00 | 0.02 | 0.02 | 68 | 1013.3 |
| 20260904202546 | 67 | 0 | 1.7 | 6.1 | 0.00 | 0.02 | 0.02 | 67 | 1013.3 |
| 20260904202044 | 65 | 296 | 1.7 | 6.1 | 0.00 | 0.02 | 0.02 | 68 | 1013.3 |
| 20260904201558 | 65 | 281 | 0.9 | 4.3 | 0.00 | 0.02 | 0.02 | 68 | 1013.3 |
| 20260904201046 | 65 | 245 | 0.9 | 6.1 | 0.00 | 0.02 | 0.02 | 65 | 1013.2 |
| 20260904200546 | 67 | 0 | 0.9 | 6.1 | 0.00 | 0.02 | 0.02 | 66 | 1013.2 |
| 20260904200058 | 65 | 5 | 0.9 | 6.1 | 0.00 | 0.02 | 0.02 | 70 | 1013.2 |
| 20260904195546 | 65 | 0 | 0.0 | 6.1 | 0.00 | 0.02 | 0.02 | 70 | 1013.3 |
| 20260904195043 | 65 | 11 | 0.9 | 6.1 | 0.00 | 0.02 | 0.02 | 71 | 1013.3 |
| 20260904194612 | 66 | 268 | 0.0 | 5.2 | 0.00 | 0.02 | 0.02 | 71 | 1013.3 |
| 20260904194047 | 64 | 0 | 0.0 | 6.1 | 0.00 | 0.02 | 0.02 | 71 | 1013.4 |
| 20260904193547 | 64 | 249 | 1.7 | 6.1 | 0.00 | 0.02 | 0.02 | 70 | 1013.5 |
| 20260904193114 | 64 | 0 | 0.0 | 3.5 | 0.00 | 0.02 | 0.02 | 73 | 1013.4 |
| 20260904192546 | 63 | 294 | 0.9 | 3.5 | 0.00 | 0.02 | 0.02 | 73 | 1013.5 |
| 20260904192044 | 64 | 294 | 0.9 | 4.3 | 0.00 | 0.02 | 0.02 | 73 | 1013.5 |
| 20260904191602 | 63 | 299 | 0.9 | 5.2 | 0.00 | 0.02 | 0.02 | 76 | 1013.4 |
| 20260904191046 | 62 | 212 | 1.7 | 5.2 | 0.00 | 0.02 | 0.02 | 79 | 1013.4 |
| 20260904190546 | 61 | 300 | 1.7 | 4.3 | 0.00 | 0.02 | 0.02 | 79 | 1013.4 |
| 20260904185547 | 61 | 315 | 0.9 | 4.3 | 0.00 | 0.02 | 0.02 | 80 | 1013.4 |
| 20260904185050 | 62 | 314 | 0.9 | 7.0 | 0.00 | 0.02 | 0.02 | 80 | 1013.4 |
| 20260904184621 | 61 | 0 | 0.9 | 7.0 | 0.00 | 0.02 | 0.02 | 83 | 1013.5 |
| 20260904184048 | 61 | 303 | 1.7 | 7.0 | 0.00 | 0.02 | 0.02 | 81 | 1013.5 |
| 20260904183548 | 61 | 0 | 0.9 | 5.2 | 0.00 | 0.02 | 0.02 | 82 | 1013.5 |
| 20260904183106 | 60 | 301 | 0.9 | 5.2 | 0.00 | 0.02 | 0.02 | 84 | 1013.5 |
| 20260904182546 | 60 | 325 | 0.0 | 3.5 | 0.00 | 0.02 | 0.02 | 84 | 1013.6 |
| 20260904182047 | 60 | 0 | 0.0 | 2.6 | 0.00 | 0.02 | 0.02 | 82 | 1013.6 |
| 20260904181611 | 60 | 330 | 0.9 | 2.6 | 0.00 | 0.02 | 0.02 | 84 | 1013.6 |
| 20260904181046 | 60 | 0 | 0.0 | 1.7 | 0.00 | 0.02 | 0.02 | 87 | 1013.5 |
| 20260904180550 | 59 | 330 | 0.0 | 1.7 | 0.00 | 0.02 | 0.02 | 89 | 1013.5 |
| 20260904180119 | 58 | 0 | 0.0 | 1.7 | 0.00 | 0.02 | 0.02 | 90 | 1013.5 |
| 20260904175546 | 57 | 0 | 0.0 | 1.7 | 0.00 | 0.02 | 0.02 | 90 | 1013.5 |
| 20260904175047 | 57 | 0 | 0.0 | 1.7 | 0.00 | 0.02 | 0.02 | 89 | 1013.5 |
| 20260904174618 | 57 | 0 | 0.0 | 2.6 | 0.00 | 0.02 | 0.02 | 92 | 1013.5 |
| 20260904174048 | 56 | 0 | 0.0 | 2.6 | 0.00 | 0.02 | 0.02 | 92 | 1013.5 |
| 20260904173547 | 57 | 331 | 0.0 | 2.6 | 0.00 | 0.02 | 0.02 | 92 | 1013.6 |
| 20260904173107 | 57 | 330 | 0.0 | 3.5 | 0.00 | 0.02 | 0.02 | 93 | 1013.5 |
| 20260904172546 | 56 | 0 | 0.0 | 3.5 | 0.00 | 0.02 | 0.02 | 93 | 1013.5 |
| 20260904172047 | 57 | 0 | 0.9 | 3.5 | 0.00 | 0.02 | 0.02 | 93 | 1013.4 |
| 20260904171607 | 56 | 0 | 0.0 | 2.6 | 0.00 | 0.02 | 0.02 | 93 | 1013.4 |
| 20260904171044 | 56 | 0 | 0.0 | 2.6 | 0.00 | 0.02 | 0.02 | 95 | 1013.5 |
| 20260904170546 | 55 | 158 | 0.0 | 2.6 | 0.00 | 0.02 | 0.02 | 96 | 1013.5 |
| 20260904170100 | 55 | 0 | 0.9 | 2.6 | 0.00 | 0.02 | 0.02 | 96 | 1013.5 |
| 20260904165545 | 55 | 0 | 0.0 | 2.6 | 0.00 | 0.02 | 0.02 | 96 | 1013.4 |
| 20260904165047 | 55 | 0 | 0.0 | 2.6 | 0.00 | 0.02 | 0.02 | 96 | 1013.4 |
| 20260904164605 | 55 | 157 | 0.0 | 1.7 | 0.00 | 0.02 | 0.02 | 96 | 1013.4 |
| 20260904164047 | 55 | 0 | 0.0 | 0.9 | 0.00 | 0.02 | 0.02 | 97 | 1013.4 |
| 20260904163548 | 55 | 0 | 0.0 | 0.0 | 0.00 | 0.02 | 0.02 | 97 | 1013.3 |
| 20260904163109 | 54 | 0 | 0.0 | 0.0 | 0.00 | 0.02 | 0.02 | 97 | 1013.3 |
| 20260904162548 | 54 | 0 | 0.0 | 0.0 | 0.00 | 0.02 | 0.02 | 97 | 1013.3 |
| 20260904162047 | 54 | 0 | 0.0 | 0.0 | 0.00 | 0.02 | 0.02 | 97 | 1013.3 |
| 20260904161600 | 54 | 0 | 0.0 | 0.0 | 0.00 | 0.02 | 0.02 | 97 | 1013.2 |
| 20260904161050 | 54 | 0 | 0.0 | 0.0 | 0.00 | 0.02 | 0.02 | 97 | 1013.2 |
| 20260904160547 | 54 | 0 | 0.0 | 0.0 | 0.00 | 0.02 | 0.02 | 97 | 1013.2 |
| 20260904160105 | 54 | 0 | 0.0 | 0.0 | 0.00 | 0.02 | 0.02 | 97 | 1013.3 |
| 20260904155546 | 54 | 0 | 0.0 | 0.0 | 0.00 | 0.02 | 0.02 | 97 | 1013.2 |
| 20260904155050 | 53 | 0 | 0.0 | 0.0 | 0.00 | 0.02 | 0.02 | 97 | 1013.3 |
| 20260904154557 | 53 | 0 | 0.0 | 0.0 | 0.00 | 0.02 | 0.02 | 97 | 1013.3 |
| 20260904154046 | 53 | 0 | 0.0 | 0.0 | 0.00 | 0.02 | 0.02 | 97 | 1013.3 |
| 20260904153547 | 53 | 0 | 0.0 | 0.0 | 0.00 | 0.02 | 0.02 | 97 | 1013.2 |
| 20260904153117 | 53 | 0 | 0.0 | 0.0 | 0.00 | 0.02 | 0.02 | 97 | 1013.2 |
| 20260904152545 | 53 | 0 | 0.0 | 0.0 | 0.00 | 0.02 | 0.02 | 97 | 1013.1 |
| 20260904152048 | 53 | 0 | 0.0 | 0.0 | 0.00 | 0.02 | 0.02 | 97 | 1013.2 |
| 20260904151602 | 53 | 0 | 0.0 | 0.0 | 0.00 | 0.02 | 0.02 | 97 | 1013.1 |
| 20260904151047 | 53 | 0 | 0.0 | 0.0 | 0.00 | 0.02 | 0.02 | 97 | 1013.1 |
| 20260904150547 | 53 | 0 | 0.0 | 0.0 | 0.00 | 0.02 | 0.02 | 97 | 1013.0 |
| 20260904145547 | 52 | 0 | 0.0 | 0.0 | 0.00 | 0.02 | 0.02 | 97 | 1012.9 |
| 20260904145047 | 52 | 0 | 0.0 | 0.0 | 0.00 | 0.02 | 0.02 | 96 | 1012.9 |
| 20260904144603 | 52 | 0 | 0.0 | 0.0 | 0.00 | 0.02 | 0.02 | 96 | 1012.8 |
| 20260904144046 | 52 | 0 | 0.0 | 0.0 | 0.00 | 0.02 | 0.02 | 96 | 1012.7 |
| 20260904143544 | 52 | 0 | 0.0 | 0.0 | 0.00 | 0.02 | 0.02 | 96 | 1012.7 |
| 20260904143109 | 52 | 0 | 0.0 | 0.0 | 0.00 | 0.02 | 0.02 | 96 | 1012.5 |
| 20260904142550 | 52 | 0 | 0.0 | 0.0 | 0.00 | 0.02 | 0.02 | 96 | 1012.5 |
| 20260904142046 | 52 | 0 | 0.0 | 0.0 | 0.00 | 0.02 | 0.02 | 96 | 1012.4 |
| 20260904141602 | 52 | 0 | 0.0 | 0.0 | 0.00 | 0.02 | 0.02 | 96 | 1012.4 |
| 20260904141046 | 52 | 0 | 0.0 | 0.0 | 0.00 | 0.02 | 0.02 | 96 | 1012.3 |
| 20260904140546 | 52 | 0 | 0.0 | 0.0 | 0.00 | 0.02 | 0.02 | 96 | 1012.4 |
| 20260904140059 | 52 | 0 | 0.0 | 0.0 | 0.00 | 0.02 | 0.02 | 96 | 1012.4 |
| 20260904135546 | 52 | 0 | 0.0 | 0.0 | 0.00 | 0.02 | 0.02 | 96 | 1012.3 |
| 20260904135047 | 52 | 0 | 0.0 | 0.0 | 0.00 | 0.02 | 0.02 | 96 | 1012.1 |
| 20260904134601 | 52 | 0 | 0.0 | 0.0 | 0.00 | 0.02 | 0.02 | 96 | 1012.0 |
| 20260904134050 | 52 | 0 | 0.0 | 0.0 | 0.00 | 0.02 | 0.02 | 96 | 1011.9 |
| 20260904133547 | 52 | 0 | 0.0 | 0.0 | 0.00 | 0.02 | 0.02 | 96 | 1011.9 |
| 20260904133112 | 52 | 0 | 0.0 | 0.0 | 0.00 | 0.02 | 0.02 | 96 | 1011.8 |
| 20260904132547 | 52 | 0 | 0.0 | 0.0 | 0.00 | 0.02 | 0.02 | 96 | 1011.7 |
| 20260904132046 | 52 | 0 | 0.0 | 0.0 | 0.00 | 0.02 | 0.02 | 96 | 1011.6 |
| 20260904131558 | 52 | 0 | 0.0 | 0.0 | 0.00 | 0.02 | 0.02 | 96 | 1011.7 |
| 20260904131046 | 52 | 0 | 0.0 | 0.0 | 0.00 | 0.02 | 0.02 | 96 | 1011.7 |
| 20260904130546 | 52 | 0 | 0.0 | 0.0 | 0.00 | 0.02 | 0.02 | 96 | 1011.5 |
| 20260904130058 | 52 | 0 | 0.0 | 0.0 | 0.00 | 0.02 | 0.02 | 96 | 1011.5 |
| 20260904125550 | 52 | 0 | 0.0 | 0.0 | 0.00 | 0.02 | 0.02 | 96 | 1011.5 |
| 20260904125046 | 52 | 0 | 0.0 | 0.9 | 0.00 | 0.02 | 0.02 | 96 | 1011.5 |
| 20260904124607 | 52 | 0 | 0.0 | 0.9 | 0.00 | 0.02 | 0.02 | 96 | 1011.6 |
| 20260904124045 | 52 | 0 | 0.0 | 0.0 | 0.00 | 0.02 | 0.02 | 96 | 1011.5 |
| 20260904123548 | 52 | 0 | 0.0 | 0.0 | 0.00 | 0.02 | 0.02 | 96 | 1011.5 |
| 20260904123114 | 52 | 0 | 0.0 | 0.0 | 0.00 | 0.02 | 0.02 | 95 | 1011.4 |
| 20260904122549 | 52 | 0 | 0.0 | 0.0 | 0.00 | 0.02 | 0.02 | 95 | 1011.5 |
| 20260904122051 | 52 | 0 | 0.0 | 0.0 | 0.00 | 0.02 | 0.02 | 95 | 1011.4 |
| 20260904121603 | 52 | 0 | 0.0 | 0.0 | 0.00 | 0.02 | 0.02 | 95 | 1011.5 |
| 20260904121052 | 52 | 0 | 0.0 | 0.0 | 0.00 | 0.02 | 0.02 | 95 | 1011.4 |
| 20260904120546 | 52 | 0 | 0.0 | 0.0 | 0.00 | 0.02 | 0.02 | 95 | 1011.3 |
| 20260904115546 | 52 | 0 | 0.0 | 0.0 | 0.00 | 0.02 | 0.02 | 95 | 1011.3 |
| 20260904115047 | 52 | 0 | 0.0 | 0.0 | 0.00 | 0.02 | 0.02 | 95 | 1011.2 |
| 20260904114602 | 52 | 0 | 0.0 | 0.0 | 0.00 | 0.02 | 0.02 | 95 | 1011.1 |
| 20260904114047 | 52 | 0 | 0.0 | 0.0 | 0.00 | 0.02 | 0.02 | 95 | 1011.1 |
| 20260904113545 | 53 | 0 | 0.0 | 0.0 | 0.00 | 0.02 | 0.02 | 95 | 1011.0 |
| 20260904113102 | 53 | 0 | 0.0 | 0.0 | 0.00 | 0.02 | 0.02 | 95 | 1011.0 |
| 20260904112547 | 53 | 0 | 0.0 | 0.0 | 0.00 | 0.02 | 0.02 | 95 | 1010.9 |
| 20260904112045 | 53 | 0 | 0.0 | 0.0 | 0.01 | 0.02 | 0.02 | 95 | 1010.9 |
| 20260904111613 | 53 | 0 | 0.0 | 0.0 | 0.02 | 0.02 | 0.02 | 95 | 1010.9 |
| 20260904111044 | 53 | 0 | 0.0 | 0.0 | 0.02 | 0.02 | 0.02 | 95 | 1010.8 |
| 20260904110546 | 53 | 0 | 0.0 | 0.0 | 0.02 | 0.02 | 0.02 | 95 | 1010.8 |
| 20260904110109 | 53 | 0 | 0.0 | 0.0 | 0.02 | 0.02 | 0.02 | 95 | 1010.8 |
| 20260904105545 | 53 | 0 | 0.0 | 0.0 | 0.02 | 0.02 | 0.02 | 95 | 1010.8 |
| 20260904105045 | 52 | 0 | 0.0 | 0.0 | 0.02 | 0.02 | 0.02 | 94 | 1010.8 |
| 20260904104604 | 53 | 0 | 0.0 | 0.0 | 0.02 | 0.02 | 0.02 | 94 | 1010.8 |
| 20260904104046 | 53 | 0 | 0.0 | 0.0 | 0.02 | 0.02 | 0.02 | 94 | 1010.8 |
| 20260904103549 | 53 | 0 | 0.0 | 0.0 | 0.02 | 0.02 | 0.02 | 94 | 1010.8 |
| 20260904103100 | 53 | 0 | 0.0 | 0.0 | 0.02 | 0.02 | 0.02 | 94 | 1010.8 |
| 20260904102547 | 53 | 0 | 0.0 | 0.0 | 0.01 | 0.01 | 0.01 | 94 | 1010.6 |
| 20260904102048 | 53 | 0 | 0.0 | 0.0 | 0.01 | 0.01 | 0.01 | 94 | 1010.9 |
| 20260904101609 | 53 | 0 | 0.0 | 0.0 | 0.00 | 0.00 | 0.00 | 94 | 1010.7 |
| 20260904101046 | 53 | 0 | 0.0 | 0.9 | 0.00 | 0.00 | 0.00 | 94 | 1010.5 |
| 20260904100551 | 53 | 0 | 0.0 | 0.9 | 0.00 | 0.00 | 0.00 | 94 | 1010.3 |
| 20260904100104 | 53 | 0 | 0.0 | 0.0 | 0.00 | 0.00 | 0.00 | 94 | 1010.3 |
| 20260904095547 | 53 | 0 | 0.0 | 0.0 | 0.00 | 0.00 | 0.00 | 94 | 1010.4 |
| 20260904095047 | 53 | 0 | 0.0 | 0.0 | 0.00 | 0.00 | 0.00 | 94 | 1010.4 |
| 20260904094601 | 53 | 0 | 0.0 | 0.0 | 0.00 | 0.00 | 0.00 | 94 | 1010.4 |
| 20260904094043 | 53 | 0 | 0.0 | 0.0 | 0.00 | 0.00 | 0.00 | 94 | 1010.5 |
| 20260904093547 | 53 | 0 | 0.0 | 0.0 | 0.00 | 0.00 | 0.00 | 93 | 1010.5 |
| 20260904093114 | 53 | 0 | 0.0 | 0.0 | 0.00 | 0.00 | 0.00 | 94 | 1010.6 |
| 20260904092550 | 53 | 0 | 0.0 | 0.0 | 0.00 | 0.00 | 0.00 | 93 | 1010.6 |
| 20260904092044 | 53 | 0 | 0.0 | 0.0 | 0.00 | 0.00 | 0.00 | 93 | 1010.5 |
| 20260904091556 | 53 | 0 | 0.0 | 0.0 | 0.00 | 0.00 | 0.00 | 93 | 1010.6 |
| 20260904091044 | 52 | 0 | 0.0 | 0.0 | 0.00 | 0.00 | 0.00 | 93 | 1010.6 |
| 20260904090546 | 52 | 0 | 0.0 | 0.0 | 0.00 | 0.00 | 0.00 | 93 | 1010.6 |
| 20260904090056 | 53 | 0 | 0.0 | 0.0 | 0.00 | 0.00 | 0.00 | 93 | 1010.7 |
| 20260904085549 | 53 | 0 | 0.0 | 0.0 | 0.00 | 0.00 | 0.00 | 93 | 1010.7 |
| 20260904085045 | 53 | 0 | 0.0 | 0.0 | 0.00 | 0.00 | 0.00 | 93 | 1010.8 |
| 20260904084601 | 53 | 0 | 0.0 | 0.0 | 0.00 | 0.00 | 0.00 | 93 | 1010.8 |
| 20260904084048 | 53 | 0 | 0.0 | 0.0 | 0.00 | 0.00 | 0.00 | 93 | 1010.8 |
| 20260904083546 | 53 | 0 | 0.0 | 0.0 | 0.00 | 0.00 | 0.00 | 93 | 1010.8 |
| 20260904083057 | 53 | 0 | 0.0 | 0.0 | 0.00 | 0.00 | 0.00 | 93 | 1010.8 |
| 20260904082546 | 53 | 0 | 0.0 | 0.0 | 0.00 | 0.00 | 0.00 | 93 | 1010.9 |
| 20260904082045 | 53 | 0 | 0.0 | 0.0 | 0.00 | 0.00 | 0.00 | 93 | 1010.8 |
| 20260904081556 | 53 | 0 | 0.0 | 0.0 | 0.00 | 0.00 | 0.00 | 93 | 1010.8 |
| 20260904081052 | 53 | 0 | 0.0 | 0.0 | 0.00 | 0.00 | 0.00 | 93 | 1010.8 |